timestamp,surface_pressure_avg,surface_temp_avg,battery_voltage,lat,long
2023-06-05 00:09:00+00:00,371.6046,4.3,12.81,47.84626,-54.09684
2023-06-05 00:19:00+00:00,371.2928,4.3,12.73,47.84626,-54.09684
2023-06-05 00:29:00+00:00,373.2244,4.3,12.73,47.84626,-54.09684
2023-06-05 00:39:00+00:00,373.4113,4.3,12.73,47.84626,-54.09684
2023-06-05 00:49:00+00:00,367.7462,4.3,12.73,47.84626,-54.09684
2023-06-05 00:59:00+00:00,365.353,4.3,12.73,47.84626,-54.09684
2023-06-05 01:09:00+00:00,363.5479,4.3,12.73,47.84626,-54.09684
2023-06-05 01:19:00+00:00,357.2346,4.3,12.65,47.84626,-54.09684
2023-06-05 01:29:00+00:00,351.2731,4.3,12.65,47.84626,-54.09684
2023-06-05 01:39:00+00:00,348.3914,4.3,12.65,47.84626,-54.09684
2023-06-05 01:49:00+00:00,343.82300000000015,4.3,12.65,47.84626,-54.09684
2023-06-05 01:59:00+00:00,334.2530000000001,4.3,12.65,47.84626,-54.09684
2023-06-05 02:09:00+00:00,328.9379,4.3,12.65,47.84626,-54.09684
2023-06-05 02:19:00+00:00,327.1479,4.3,12.65,47.84626,-54.09684
2023-06-05 02:29:00+00:00,318.4479,4.3,12.65,47.84626,-54.09684
2023-06-05 02:39:00+00:00,307.5814,4.31,12.65,47.84626,-54.09684
2023-06-05 02:49:00+00:00,300.5097,4.39,12.65,47.84626,-54.09684
2023-06-05 02:59:00+00:00,294.123,4.39,12.65,47.84626,-54.09684
2023-06-05 03:09:00+00:00,281.4197,4.32,12.65,47.84626,-54.09684
2023-06-05 03:19:00+00:00,269.343,4.21,12.57,47.84626,-54.09684
2023-06-05 03:29:00+00:00,261.8014,4.25,12.57,47.84626,-54.09684
2023-06-05 03:39:00+00:00,255.0847,4.2,12.57,47.84626,-54.09684
2023-06-05 03:49:00+00:00,243.7214,4.2,12.57,47.84626,-54.09684
2023-06-05 03:59:00+00:00,232.7214,4.2,12.57,47.84626,-54.09684
2023-06-05 04:09:00+00:00,226.1648,4.1,12.57,47.84626,-54.09684
2023-06-05 04:19:00+00:00,217.8081,4.1,12.57,47.84626,-54.09684
2023-06-05 04:29:00+00:00,206.7198,4.07,12.57,47.84626,-54.09684
2023-06-05 04:39:00+00:00,198.7914,4.0,12.57,47.84626,-54.09684
2023-06-05 04:49:00+00:00,194.1498,3.93,12.57,47.84626,-54.09684
2023-06-05 04:59:00+00:00,186.6315,4.19,12.57,47.84626,-54.09684
2023-06-05 05:09:00+00:00,178.4015,4.3,12.57,47.84626,-54.09684
2023-06-05 05:19:00+00:00,174.3631,4.36,12.57,47.84626,-54.09684
2023-06-05 05:29:00+00:00,172.0148,4.4,12.57,47.84626,-54.09684
2023-06-05 05:39:00+00:00,168.1232,4.4,12.57,47.84626,-54.09684
2023-06-05 05:49:00+00:00,166.5182,4.42,12.57,47.84626,-54.09684
2023-06-05 05:59:00+00:00,167.5764,4.48,12.57,47.84626,-54.09684
2023-06-05 06:09:00+00:00,167.6865,4.5,12.57,47.84626,-54.09684
2023-06-05 06:19:00+00:00,170.1582,4.5,12.57,47.84626,-54.09684
2023-06-05 06:29:00+00:00,174.1331,4.5,12.57,47.84626,-54.09684
2023-06-05 06:39:00+00:00,175.7965,4.5,12.57,47.84626,-54.09684
2023-06-05 06:49:00+00:00,177.4931,4.5,12.57,47.84626,-54.09684
2023-06-05 06:59:00+00:00,180.9915,4.51,12.57,47.84626,-54.09684
2023-06-05 07:09:00+00:00,185.4732,4.56,12.57,47.84626,-54.09684
2023-06-05 07:19:00+00:00,187.5114,4.58,12.57,47.84626,-54.09684
2023-06-05 07:29:00+00:00,188.6131,4.57,12.57,47.84626,-54.09684
2023-06-05 07:39:00+00:00,192.7131,4.54,12.57,47.84626,-54.09684
2023-06-05 07:49:00+00:00,195.3998,4.54,12.57,47.84626,-54.09684
2023-06-05 07:59:00+00:00,198.3148,4.5,12.57,47.84626,-54.09684
2023-06-05 08:09:00+00:00,203.9515,4.5,12.57,47.84626,-54.09684
2023-06-05 08:19:00+00:00,206.1414,4.5,12.57,47.84626,-54.09684
2023-06-05 08:29:00+00:00,207.6297,4.5,12.57,47.84626,-54.09684
2023-06-05 08:39:00+00:00,212.0731,4.5,12.57,47.84626,-54.09684
2023-06-05 08:49:00+00:00,217.4397,4.5,12.57,47.84626,-54.09684
2023-06-05 08:59:00+00:00,222.7531,4.5,12.57,47.84626,-54.09684
2023-06-05 09:09:00+00:00,227.5098,4.5,12.57,47.84626,-54.09684
2023-06-05 09:19:00+00:00,232.4781,4.5,12.57,47.84626,-54.09684
2023-06-05 09:29:00+00:00,237.9498,4.5,12.57,47.84626,-54.09684
2023-06-05 09:39:00+00:00,243.6464,4.5,12.57,47.84626,-54.09684
2023-06-05 09:49:00+00:00,248.2764,4.5,12.57,47.84626,-54.09684
2023-06-05 09:59:00+00:00,256.2297,4.5,12.57,47.84626,-54.09684
2023-06-05 10:09:00+00:00,264.8047,4.5,12.57,47.84626,-54.09684
2023-06-05 10:19:00+00:00,272.4348,4.5,12.65,47.84626,-54.09684
2023-06-05 10:29:00+00:00,279.0647,4.32,12.65,47.84626,-54.09684
2023-06-05 10:39:00+00:00,287.688,4.29,12.65,47.84626,-54.09684
2023-06-05 10:49:00+00:00,294.64799999999997,4.49,12.65,47.84626,-54.09684
2023-06-05 10:59:00+00:00,299.3097,4.55,12.65,47.84626,-54.09684
2023-06-05 11:09:00+00:00,304.3913,4.59,12.65,47.84626,-54.09684
2023-06-05 11:19:00+00:00,310.1714,4.59,12.89,47.84626,-54.09684
2023-06-05 11:29:00+00:00,316.9664,4.56,12.89,47.84626,-54.09684
2023-06-05 11:39:00+00:00,322.353,4.5,12.89,47.84626,-54.09684
2023-06-05 11:49:00+00:00,325.3014,4.5,12.89,47.84626,-54.09684
2023-06-05 11:59:00+00:00,326.3464,4.5,12.89,47.84626,-54.09684
2023-06-05 12:09:00+00:00,328.7398,4.5,12.89,47.84626,-54.09684
2023-06-05 12:19:00+00:00,332.1129,4.1,13.21,47.84626,-54.09684
2023-06-05 12:29:00+00:00,332.1814,3.9,13.21,47.84626,-54.09684
2023-06-05 12:39:00+00:00,330.0081,3.94,13.21,47.84626,-54.09684
2023-06-05 12:49:00+00:00,331.3196,4.0,13.21,47.84626,-54.09684
2023-06-05 12:59:00+00:00,332.6362,4.04,13.21,47.84626,-54.09684
2023-06-05 13:09:00+00:00,331.2863,4.09,13.21,47.84626,-54.09684
2023-06-05 13:19:00+00:00,327.7513,4.09,13.44,47.84626,-54.09684
2023-06-05 13:29:00+00:00,325.9963,4.08,13.44,47.84626,-54.09684
2023-06-05 13:39:00+00:00,324.5897,4.04,13.44,47.84626,-54.09684
2023-06-05 13:49:00+00:00,322.1579,4.0,13.44,47.84626,-54.09684
2023-06-05 13:59:00+00:00,319.1247,3.9,13.44,47.84626,-54.09684
2023-06-05 14:09:00+00:00,314.1431,3.9,13.44,47.84626,-54.09684
2023-06-05 14:19:00+00:00,309.8297,3.9,13.68,47.84626,-54.09684
2023-06-05 14:29:00+00:00,306.4563,3.94,13.68,47.84626,-54.09684
2023-06-05 14:39:00+00:00,299.0297,4.01,13.68,47.84626,-54.09684
2023-06-05 14:49:00+00:00,291.4047,4.0,13.68,47.84626,-54.09684
2023-06-05 14:59:00+00:00,284.8364,3.99,13.68,47.84626,-54.09684
2023-06-05 15:09:00+00:00,277.6131,3.9,13.68,47.84626,-54.09684
2023-06-05 15:19:00+00:00,263.9597,3.99,13.84,47.84626,-54.09684
2023-06-05 15:29:00+00:00,255.8848,4.0,13.84,47.84626,-54.09684
2023-06-05 15:39:00+00:00,251.2548,4.0,13.84,47.84626,-54.09684
2023-06-05 15:49:00+00:00,241.6214,4.06,13.84,47.84626,-54.09684
2023-06-05 15:59:00+00:00,227.5264,4.1,13.84,47.84626,-54.09684
2023-06-05 16:09:00+00:00,221.3898,4.17,13.84,47.84626,-54.09684
2023-06-05 16:19:00+00:00,217.9448,4.2,14.0,47.84626,-54.09684
2023-06-05 16:29:00+00:00,207.4331,4.2,14.0,47.84626,-54.09684
2023-06-05 16:39:00+00:00,197.6631,4.2,14.0,47.84626,-54.09684
2023-06-05 16:49:00+00:00,195.3531,4.2,14.0,47.84626,-54.09684
2023-06-05 16:59:00+00:00,193.3665,4.36,14.0,47.84626,-54.09684
2023-06-05 17:09:00+00:00,184.4465,4.69,14.0,47.84626,-54.09684
2023-06-05 17:19:00+00:00,176.9948,4.7,14.0,47.84626,-54.09684
2023-06-05 17:29:00+00:00,176.4933,4.7,14.0,47.84626,-54.09684
2023-06-05 17:39:00+00:00,174.8232,4.5,14.0,47.84626,-54.09684
2023-06-05 17:49:00+00:00,169.1282,4.3,14.0,47.84626,-54.09684
2023-06-05 17:59:00+00:00,165.8398,4.22,14.0,47.84626,-54.09684
2023-06-05 18:09:00+00:00,168.2782,4.2,14.0,47.84626,-54.09684
2023-06-05 18:19:00+00:00,168.6797,4.19,13.84,47.84626,-54.09684
2023-06-05 18:29:00+00:00,166.7131,4.14,13.84,47.84626,-54.09684
2023-06-05 18:39:00+00:00,171.7531,4.1,13.84,47.84626,-54.09684
2023-06-05 18:49:00+00:00,179.4015,4.1,13.84,47.84626,-54.09684
2023-06-05 18:59:00+00:00,179.5664,4.1,13.84,47.84626,-54.09684
2023-06-05 19:09:00+00:00,179.1181,4.13,13.84,47.84626,-54.09684
2023-06-05 19:19:00+00:00,186.4398,4.17,13.76,47.84626,-54.09684
2023-06-05 19:29:00+00:00,193.9131,4.39,13.76,47.84626,-54.09684
2023-06-05 19:39:00+00:00,196.6314,5.4,13.76,47.84626,-54.09684
2023-06-05 19:49:00+00:00,200.0815,4.97,13.76,47.84626,-54.09684
2023-06-05 19:59:00+00:00,206.4781,4.6,13.76,47.84626,-54.09684
2023-06-05 20:09:00+00:00,210.5764,4.5,13.76,47.84626,-54.09684
2023-06-05 20:19:00+00:00,213.148,4.5,13.68,47.84626,-54.09684
2023-06-05 20:29:00+00:00,217.3415,4.51,13.68,47.84626,-54.09684
2023-06-05 20:39:00+00:00,223.9564,4.55,13.68,47.84626,-54.09684
2023-06-05 20:49:00+00:00,229.8615,4.52,13.68,47.84626,-54.09684
2023-06-05 20:59:00+00:00,234.6514,4.5,13.68,47.84626,-54.09684
2023-06-05 21:09:00+00:00,241.8531,4.54,13.68,47.84626,-54.09684
2023-06-05 21:19:01+00:00,250.8248,4.58,13.53,47.84626,-54.09684
2023-06-05 21:29:01+00:00,255.8247,4.59,13.53,47.84626,-54.09684
2023-06-05 21:39:01+00:00,261.0331,4.56,13.53,47.84626,-54.09684
2023-06-05 21:49:01+00:00,268.0014,4.55,13.53,47.84626,-54.09684
2023-06-05 21:59:01+00:00,275.553,5.16,13.53,47.84626,-54.09684
2023-06-05 22:09:01+00:00,281.7197,4.4,13.53,47.84626,-54.09684
2023-06-05 22:19:00+00:00,289.048,4.49,13.37,47.84626,-54.09684
2023-06-05 22:29:00+00:00,297.0948,4.56,13.37,47.84626,-54.09684
2023-06-05 22:39:00+00:00,306.1147,4.67,13.37,47.84626,-54.09684
2023-06-05 22:49:00+00:00,315.813,4.92,13.37,47.84626,-54.09684
2023-06-05 22:59:00+00:00,326.8646,4.9,13.37,47.84626,-54.09684
2023-06-05 23:09:00+00:00,337.478,4.78,13.37,47.84626,-54.09684
2023-06-05 23:19:00+00:00,343.5296,5.25,13.13,47.84626,-54.09684
2023-06-05 23:29:00+00:00,348.3663,5.19,13.13,47.84626,-54.09684
2023-06-05 23:39:00+00:00,355.7363,4.5,13.13,47.84626,-54.09684
2023-06-05 23:49:00+00:00,362.8329,4.1,13.13,47.84626,-54.09684
2023-06-05 23:59:00+00:00,366.5098,4.31,13.13,47.84626,-54.09684
